Goldsboro, NC

3:31 PM EDT on July 26, 2017 (GMT -0400)
Seymour Johnson Air Force Base

Weather History for KGSB - November, 2013

Change the Weather History Date:

Friday, November 22, 2013

  Actual Average Record
Temperature  
Mean Temperature 63 °F -  
Max Temperature 75 °F 62 °F 78 °F (1999)
Min Temperature 51 °F 41 °F 23 °F (2000)
Degree Days  
Heating Degree Days 2    
Growing Degree Days 13 (Base 50)    
Moisture  
Dew Point 55 °F    
Average Humidity 90    
Maximum Humidity 100    
Minimum Humidity 58    
Precipitation  
Precipitation 0.00 in - - ()
Sea Level Pressure  
Sea Level Pressure 30.27 in    
Wind  
Wind Speed 3 mph (NE)    
Max Wind Speed 13 mph    
Max Gust Speed -    
Visibility 7 miles    
Events Rain    
Averages and records for this station are not official NWS values.
T = Trace of Precipitation, MM = Missing Value Source: NWS Daily Summary

Daily Weather History Graph

Daily Weather History Graph

Search for Another Location

Airport or City:

Trip Planner

Search our weather history database for the weather conditions in past years. The results will help you decide how hot, cold, wet, or windy it might be!

Date:

Astronomy

Nov. 22, 2013 Rise Set
Actual Time 6:54 AM EST 5:01 PM EST
Civil Twilight 6:26 AM EST 5:29 PM EST
Nautical Twilight 5:55 AM EST 6:00 PM EST
Astronomical Twilight 5:25 AM EST 6:30 PM EST
Moon 9:29 PM EST (11/22) 10:38 AM EST (11/22)
Length of Visible Light 11h 02m
Length of Day
10h 07m
Waning Gibbous, 78% of the Moon is Illuminated
Nov 22
Waning Gibbous
Nov 25
Last Quarter
Dec 2
New
Dec 9
First Quarter
Dec 17
Full

Hourly Weather History & Observations

Time (EST) Temp. Dew Point Humidity Pressure Visibility Wind Dir Wind Speed Gust Speed Precip Events Conditions
12:04 AM 53.6 °F 51.8 °F 94% 30.37 in 1.8 mi NNE 1.2 mph - N/A   Overcast
12:25 AM 53.6 °F 51.8 °F 94% 30.37 in 2.0 mi North 2.3 mph - N/A   Overcast
12:28 AM 53.6 °F 51.8 °F 94% 30.37 in 2.5 mi Calm Calm - N/A   Overcast
12:31 AM 53.6 °F 51.8 °F 94% 30.37 in 3.0 mi North 2.3 mph - N/A   Overcast
12:34 AM 53.6 °F 51.8 °F 94% 30.37 in 3.0 mi NNE 2.3 mph - N/A   Overcast
12:55 AM 53.6 °F 51.8 °F 94% 30.36 in 4.0 mi ENE 3.5 mph - N/A   Overcast
12:58 AM 52.9 °F 52.3 °F 98% 30.37 in 3.0 mi ENE 3.5 mph - N/A   Overcast
1:01 AM 53.6 °F 51.8 °F 94% 30.35 in 2.5 mi ENE 3.5 mph - N/A   Overcast
1:07 AM 53.6 °F 51.8 °F 94% 30.35 in 2.0 mi East 2.3 mph - N/A   Overcast
1:13 AM 53.6 °F 51.8 °F 94% 30.35 in 1.8 mi ENE 1.2 mph - N/A   Overcast
1:22 AM 53.6 °F 51.8 °F 94% 30.36 in 2.0 mi NNE 2.3 mph - N/A   Overcast
1:25 AM 53.6 °F 51.8 °F 94% 30.36 in 3.0 mi NE 2.3 mph - N/A   Overcast
1:34 AM 53.6 °F 51.8 °F 94% 30.36 in 6.0 mi NNE 2.3 mph - N/A   Overcast
1:58 AM 52.9 °F 52.3 °F 98% 30.36 in 5.0 mi North 3.5 mph - N/A   Overcast
2:19 AM 53.6 °F 51.8 °F 94% 30.35 in 2.5 mi NE 2.3 mph - N/A   Overcast
2:22 AM 53.6 °F 51.8 °F 94% 30.35 in 2.0 mi NNE 2.3 mph - N/A   Overcast
2:25 AM 53.6 °F 51.8 °F 94% 30.35 in 2.0 mi North 3.5 mph - N/A   Overcast
2:34 AM 53.6 °F 51.8 °F 94% 30.35 in 1.8 mi North 1.2 mph - N/A   Overcast
2:43 AM 53.6 °F 51.8 °F 94% 30.35 in 2.0 mi NNE 2.3 mph - N/A   Overcast
2:58 AM 52.9 °F 52.3 °F 98% 30.36 in 2.0 mi NE 3.5 mph - N/A   Overcast
3:01 AM 53.6 °F 51.8 °F 94% 30.34 in 2.0 mi NE 3.5 mph - N/A   Overcast
3:04 AM 53.6 °F 51.8 °F 94% 30.34 in 2.5 mi NE 3.5 mph - N/A   Overcast
3:10 AM 53.6 °F 51.8 °F 94% 30.34 in 2.0 mi NNE 3.5 mph - N/A   Overcast
3:13 AM 51.8 °F 51.8 °F 100% 30.34 in 2.0 mi NNE 2.3 mph - N/A   Overcast
3:25 AM 51.8 °F 51.8 °F 100% 30.34 in 2.5 mi NE 3.5 mph - N/A   Overcast
3:28 AM 51.8 °F 51.8 °F 100% 30.34 in 4.0 mi NE 4.6 mph - N/A   Overcast
3:58 AM 52.5 °F 52.0 °F 98% 30.35 in 10.0 mi NNE 2.3 mph - N/A   Overcast
4:34 AM 51.8 °F 51.8 °F 100% 30.34 in 10.0 mi Calm Calm - N/A   Overcast
4:49 AM 51.8 °F 51.8 °F 100% 30.34 in 5.0 mi Calm Calm - N/A   Overcast
4:58 AM 52.5 °F 52.0 °F 98% 30.34 in 5.0 mi NE 2.3 mph - N/A   Overcast
5:04 AM 51.8 °F 51.8 °F 100% 30.33 in 10.0 mi NNE 1.2 mph - N/A   Overcast
5:10 AM 51.8 °F 51.8 °F 100% 30.33 in 10.0 mi NNE 1.2 mph - N/A   Overcast
5:58 AM 52.3 °F 51.8 °F 98% 30.33 in 10.0 mi East 4.6 mph - N/A   Overcast
6:01 AM 51.8 °F 51.8 °F 100% 30.32 in 10.0 mi East 5.8 mph - N/A   Overcast
6:10 AM 51.8 °F 51.8 °F 100% 30.32 in 9.0 mi East 5.8 mph - N/A   Overcast
6:11 AM 51.8 °F 51.8 °F 100% 30.32 in 9.0 mi East 6.9 mph - N/A Rain Light Rain
6:17 AM 51.8 °F 51.8 °F 100% 30.32 in 9.0 mi ESE 5.8 mph - N/A Rain Light Rain
6:20 AM 51.8 °F 51.8 °F 100% 30.32 in 9.0 mi South 4.6 mph - N/A   Overcast
6:41 AM 51.8 °F 51.8 °F 100% 30.33 in 10.0 mi South 2.3 mph - N/A   Overcast
6:50 AM 51.8 °F 51.8 °F 100% 30.33 in 10.0 mi Calm Calm - N/A   Overcast
6:58 AM 52.3 °F 51.8 °F 98% 30.34 in 10.0 mi Calm Calm - 0.00 in   Overcast
7:25 AM 51.8 °F 51.8 °F 100% 30.32 in 10.0 mi ESE 4.6 mph - N/A   Overcast
7:58 AM 53.6 °F 53.1 °F 98% 30.32 in 10.0 mi West 4.6 mph - N/A   Overcast
8:58 AM 57.6 °F 57.0 °F 98% 30.31 in 10.0 mi Calm Calm - N/A   Clear
9:58 AM 63.9 °F 55.4 °F 74% 30.30 in 10.0 mi SSE 3.5 mph - N/A   Clear
10:58 AM 67.3 °F 56.8 °F 69% 30.29 in 10.0 mi West 2.3 mph - N/A   Clear
11:58 AM 72.5 °F 59.2 °F 63% 30.25 in 10.0 mi SSW 8.1 mph - N/A   Partly Cloudy
12:58 PM 75.0 °F 59.5 °F 58% 30.22 in 10.0 mi WSW 10.4 mph - N/A   Partly Cloudy
1:54 PM 73.4 °F 59.0 °F 61% 30.19 in 10.0 mi WSW 11.5 mph - N/A Rain Light Rain
1:58 PM 72.9 °F 60.3 °F 65% 30.20 in 10.0 mi WSW 9.2 mph - 0.00 in Rain Light Rain
2:05 PM 71.6 °F 62.6 °F 73% 30.19 in 10.0 mi WSW 8.1 mph - N/A   Scattered Clouds
2:25 PM 71.6 °F 60.8 °F 69% 30.18 in 10.0 mi WSW 11.5 mph - N/A Rain Light Rain
2:36 PM 71.6 °F 60.8 °F 69% 30.18 in 10.0 mi West 12.7 mph - N/A   Mostly Cloudy
2:40 PM 71.6 °F 60.8 °F 69% 30.18 in 10.0 mi WSW 11.5 mph - N/A Rain Light Rain
2:58 PM 69.6 °F 63.5 °F 81% 30.18 in 10.0 mi West 6.9 mph - 0.00 in Rain Light Rain
3:00 PM 69.8 °F 62.6 °F 78% 30.17 in 10.0 mi West 8.1 mph - N/A   Mostly Cloudy
3:58 PM 72.7 °F 61.0 °F 67% 30.16 in 10.0 mi WSW 10.4 mph - 0.00 in   Clear
4:58 PM 69.1 °F 60.4 °F 74% 30.15 in 10.0 mi WSW 4.6 mph - N/A   Mostly Cloudy
5:58 PM 64.9 °F 60.6 °F 86% 30.15 in 10.0 mi SW 3.5 mph - N/A   Mostly Cloudy
6:58 PM 65.1 °F 61.3 °F 88% 30.13 in 10.0 mi South 5.8 mph - N/A   Overcast
7:22 PM 66.2 °F 60.8 °F 83% 30.12 in 10.0 mi South 3.5 mph - N/A   Overcast
7:28 PM 64.4 °F 60.8 °F 88% 30.12 in 10.0 mi SSW 4.6 mph - N/A   Overcast
7:58 PM 64.8 °F 61.7 °F 90% 30.13 in 10.0 mi South 5.8 mph - N/A   Overcast
8:58 PM 64.8 °F 62.1 °F 91% 30.12 in 10.0 mi SSW 8.1 mph - N/A   Mostly Cloudy
9:58 PM 64.8 °F 62.8 °F 93% 30.11 in 10.0 mi SW 6.9 mph - N/A   Overcast
10:58 PM 64.8 °F 63.0 °F 94% 30.10 in 10.0 mi SW 8.1 mph - N/A   Mostly Cloudy
11:02 PM 64.4 °F 62.6 °F 94% 30.09 in 10.0 mi SSW 9.2 mph - N/A Rain Light Rain
11:24 PM 64.4 °F 62.6 °F 94% 30.09 in 10.0 mi SW 6.9 mph - N/A   Partly Cloudy
11:32 PM 64.4 °F 62.6 °F 94% 30.09 in 10.0 mi SSW 6.9 mph - N/A Rain Light Rain
11:46 PM 64.4 °F 62.6 °F 94% 30.08 in 10.0 mi SSW 5.8 mph - N/A   Partly Cloudy
11:58 PM 64.2 °F 63.3 °F 97% 30.09 in 10.0 mi SSW 5.8 mph - 0.00 in   Mostly Cloudy